Wind_Speed
22 22 21 21 22 23 23 23 23 24 24 24 25 25 26 26 26 26 26 26 26 27 28 29 29 30 31 31 30 29 29 28 29 29 29 29 29 29 29 29 28 29 29
22 21 21 21 21 22 23 23 23 24 24 25 25 26 26 26 26 26 27 27 27 28 28 28 28 28 29 29 29 29 29 29 29 29 30 29 28 28 28 29 28 27 28
22 22 22 22 21 22 22 23 23 24 24 25 25 26 27 27 27 27 28 28 28 28 28 28 28 28 28 29 29 29 29 30 29 29 29 29 28 28 27 27 27 27 27
21 22 23 22 22 22 23 24 24 24 24 25 26 27 27 28 28 29 29 28 27 27 28 28 29 29 28 28 29 29 29 29 29 29 29 29 28 27 26 26 27 28 28
20 22 22 22 23 23 24 24 24 24 25 26 27 27 28 28 28 28 28 27 27 27 28 28 28 28 29 29 28 28 28 28 28 28 27 27 26 26 26 25 27 28 28
22 23 23 23 23 24 24 24 24 25 26 26 27 28 28 28 27 26 26 27 27 26 27 28 28 28 29 29 27 27 27 27 26 26 26 26 26 26 26 26 26 27 28
23 23 24 23 23 23 24 24 24 25 25 26 26 25 25 26 26 26 27 27 26 26 27 27 27 28 28 27 26 26 25 25 25 25 25 25 25 26 26 26 26 26 26
23 23 23 23 23 24 24 24 25 25 25 25 25 25 25 25 25 26 26 26 26 26 26 26 26 26 26 25 25 24 23 23 23 23 23 23 24 25 25 25 25 25 25
22 22 22 22 22 23 24 24 24 24 24 24 24 26 25 25 25 26 25 25 24 25 25 24 24 24 24 24 24 23 22 23 22 22 22 22 22 23 24 24 24 24 25
22 22 22 21 21 22 23 23 22 22 22 23 24 25 25 25 24 25 25 24 24 24 24 24 23 23 23 22 22 21 21 21 21 21 21 21 22 23 23 24 24 24 24
23 22 22 21 20 20 21 21 21 22 22 23 23 23 23 23 23 23 24 24 24 24 23 23 22 22 21 21 21 21 20 20 21 21 21 22 22 22 23 23 23 23 23
22 21 21 20 19 19 20 20 21 21 22 22 22 22 21 21 22 22 23 23 23 23 21 22 21 21 21 20 20 20 20 20 21 22 22 22 22 21 21 21 22 23 23
21 20 21 20 19 18 18 19 19 20 21 22 22 21 21 21 21 20 20 20 20 19 20 20 19 19 19 20 20 20 21 21 22 22 22 21 21 21 21 22 22 23 23
20 20 21 20 18 16 17 18 18 20 20 20 20 20 20 20 19 18 19 19 19 19 19 18 18 18 18 18 19 20 21 22 21 21 21 20 20 20 21 21 22 22 22
19 19 19 19 17 17 16 18 18 19 19 19 19 18 18 18 18 17 18 18 17 17 17 17 17 18 18 18 19 20 21 21 20 20 19 19 19 19 20 20 20 20 20
19 18 18 17 17 17 16 17 18 18 18 18 17 17 17 17 16 16 16 17 16 17 17 17 17 18 18 19 19 20 20 20 19 19 19 18 18 19 19 19 18 18 17
18 18 16 16 16 16 16 16 16 16 17 17 16 16 15 15 15 15 16 16 17 17 18 18 18 18 18 19 19 19 19 18 18 18 18 18 17 17 17 17 17 17 16
16 15 15 15 15 15 14 15 15 15 16 16 15 14 14 15 15 15 16 17 17 18 18 17 18 18 18 18 19 19 18 18 17 17 16 16 16 17 17 17 16 15 15
16 15 14 13 13 13 13 14 15 15 14 14 14 14 14 15 15 15 16 17 17 17 17 17 18 18 19 19 19 18 18 17 17 16 16 16 16 16 16 15 14 13 12
13 13 12 12 11 12 12 13 13 13 12 12 13 13 14 14 14 15 16 17 17 17 17 17 18 18 19 19 18 17 17 16 16 16 16 16 16 15 14 14 13 12 11
12 11 10 10 11 10 10 11 11 11 10 11 12 13 14 14 14 15 16 16 17 17 17 17 18 18 18 18 17 17 16 16 16 16 16 16 15 14 13 12 12 11 10
11 10 9 9 9 9 9 10 10 10 10 10 11 12 13 13 14 15 16 16 17 17 17 17 17 18 18 18 17 16 16 16 16 16 15 14 14 13 12 12 11 10 10
10 8 7 7 8 8 8 9 9 9 9 10 10 12 12 12 13 14 15 16 16 17 17 17 17 18 18 18 17 17 16 16 16 15 15 14 13 13 12 12 12 11 10
8 7 7 6 7 7 8 8 8 8 9 9 10 11 11 12 13 14 15 15 15 16 17 17 17 17 18 18 17 16 16 16 15 15 15 14 14 13 12 12 11 11 11
7 7 6 5 6 6 7 8 7 7 8 9 9 10 11 12 13 14 15 15 16 17 17 17 17 17 18 18 17 17 16 16 16 16 15 15 14 13 13 12 11 11 12
6 5 5 5 5 6 7 6 6 6 7 8 9 11 11 12 13 14 14 15 16 16 17 17 17 17 18 18 18 18 17 16 15 15 15 15 14 14 14 13 13 14 14
Wind_Direction
280 280 280 279 282 284 287 288 289 290 293 295 296 296 295 293 293 294 294 293 293 294 294 294 294 294 293 292 292 293 291 289 288 286 284 282 282 280 280 279 278 274 273
279 279 280 282 284 286 287 289 293 293 293 296 295 296 296 295 293 294 293 294 293 293 294 294 297 296 295 294 292 292 290 290 288 285 283 283 283 282 281 280 280 277 274
277 279 282 281 283 287 289 292 295 296 295 296 295 295 296 295 294 294 295 294 294 295 295 296 298 298 296 296 293 291 290 290 287 285 283 282 282 282 282 281 280 279 276
277 279 283 281 283 286 289 292 295 296 297 297 297 297 296 297 296 297 297 295 295 295 297 297 298 298 298 296 295 293 292 290 287 285 284 283 283 282 281 282 281 279 277
285 283 285 282 283 285 289 292 295 296 298 299 299 299 298 298 297 299 299 295 296 297 299 299 298 298 299 299 297 296 294 291 288 286 284 283 282 281 281 281 280 278 276
284 284 285 286 287 287 290 291 295 296 297 298 298 299 296 297 296 298 300 298 297 298 300 300 299 299 299 300 299 297 296 294 291 288 285 284 281 279 280 281 280 279 278
286 284 284 287 287 288 290 292 294 296 297 299 300 301 298 297 298 300 300 300 298 299 300 300 301 300 300 299 299 300 300 298 294 291 288 283 280 279 279 279 279 278 277
284 286 286 287 285 286 289 292 295 297 298 300 301 302 302 300 300 302 303 303 303 302 301 301 302 303 302 302 302 301 301 299 298 295 292 288 284 282 281 281 281 280 278
284 285 285 287 287 288 291 293 295 298 300 302 303 303 303 303 302 303 305 305 307 306 303 303 304 306 306 305 304 303 302 301 300 298 296 293 289 285 284 284 283 280 277
284 286 286 287 289 289 290 292 295 299 302 304 306 306 305 303 302 302 304 305 308 308 306 308 309 308 309 308 305 303 303 302 301 300 298 295 292 288 285 285 283 281 280
287 286 288 289 288 288 290 294 296 300 303 307 309 309 306 305 303 302 304 305 307 308 308 307 309 310 309 307 305 305 305 304 304 303 301 297 293 291 288 286 284 282 279
290 289 288 289 291 291 292 296 299 301 303 306 309 308 307 308 309 308 308 308 307 309 309 308 308 309 309 309 307 307 308 306 306 305 302 300 297 293 291 289 286 284 281
291 290 289 288 290 292 295 298 300 301 303 306 308 309 311 312 312 312 312 313 313 312 313 312 310 311 311 311 310 309 310 307 306 305 304 302 299 296 293 291 288 285 282
290 289 288 289 290 293 295 297 301 304 305 306 308 309 310 314 315 315 315 315 315 316 318 318 317 316 316 316 314 314 312 310 308 307 306 303 301 297 294 292 289 286 282
291 289 288 288 288 293 295 297 301 303 304 305 309 310 313 316 317 318 320 321 323 324 324 323 322 321 321 320 319 319 318 314 311 309 308 305 304 301 298 296 293 289 285
296 292 288 288 291 294 296 297 301 303 304 306 311 313 316 318 320 319 322 325 326 327 327 326 325 324 324 323 322 322 320 319 317 316 314 311 308 306 304 301 296 292 289
296 294 291 292 293 295 297 298 300 303 306 310 313 316 318 322 323 323 324 325 325 325 327 326 327 327 326 325 324 323 323 322 321 320 319 316 314 313 311 307 302 296 290
299 298 296 292 293 296 298 300 302 304 307 310 313 317 320 323 324 325 326 328 328 328 328 328 329 329 329 328 327 326 324 323 322 322 321 321 319 316 313 310 305 298 293
300 301 298 293 290 296 301 301 302 303 305 310 314 316 319 320 323 325 328 331 330 329 330 331 331 330 330 330 329 329 328 325 324 323 323 324 323 319 318 316 312 306 299
301 302 297 295 294 299 302 301 304 306 307 310 316 319 321 323 326 328 330 333 334 333 333 333 333 332 333 334 334 335 334 331 328 327 326 326 325 324 323 324 322 316 310
301 301 296 294 300 305 304 305 310 312 311 313 317 319 323 326 328 329 332 334 336 337 337 337 336 336 336 337 337 337 337 336 334 333 331 331 332 331 328 327 325 322 318
299 299 297 296 305 309 309 314 317 317 318 320 322 324 324 325 328 331 334 336 337 337 338 338 338 338 338 339 339 340 340 340 338 337 338 337 336 334 332 331 329 326 323
294 295 299 302 309 313 316 322 325 329 333 334 333 332 332 333 335 337 338 338 338 341 341 340 341 342 342 341 341 340 340 341 340 341 343 343 342 339 336 335 333 329 325
283 288 301 311 320 321 320 323 326 334 340 341 342 343 343 342 342 341 342 342 342 343 345 345 346 348 347 346 347 345 344 345 346 346 346 346 344 342 340 339 336 333 330
282 284 293 310 315 316 320 326 331 337 342 345 347 347 347 347 345 345 345 345 345 346 348 349 350 350 349 348 347 346 344 343 342 343 341 340 339 339 338 334 332 328 327
278 282 287 302 316 326 330 333 335 341 348 351 351 349 346 347 349 349 349 349 349 348 348 349 348 347 346 346 346 345 345 343 340 338 338 338 338 335 332 330 330 329 326
Height
5848 5847 5847 5847 5846 5846 5845 5844 5843 5841 5840 5838 5837 5835 5833 5831 5829 5827 5825 5823 5820 5818 5816 5813 5811 5808 5806 5804 5801 5799 5797 5796 5794 5793 5792 5791 5790 5790 5789 5789 5789 5789 5789
5843 5842 5842 5842 5842 5841 5840 5839 5838 5836 5835 5833 5832 5830 5827 5825 5823 5821 5819 5817 5814 5812 5809 5807 5804 5802 5799 5797 5795 5793 5790 5788 5787 5785 5784 5784 5784 5783 5782 5782 5782 5781 5781
5839 5839 5838 5836 5837 5836 5836 5835 5833 5831 5830 5828 5826 5824 5822 5820 5817 5815 5813 5810 5808 5805 5803 5801 5798 5795 5793 5790 5788 5786 5783 5781 5780 5778 5777 5776 5776 5776 5775 5775 5774 5774 5774
5835 5834 5833 5832 5832 5832 5831 5830 5828 5827 5825 5823 5821 5818 5816 5814 5811 5809 5807 5804 5801 5799 5797 5794 5792 5789 5786 5784 5781 5778 5776 5774 5772 5771 5770 5769 5768 5768 5768 5768 5767 5766 5766
5830 5830 5829 5828 5827 5827 5827 5825 5824 5822 5820 5817 5815 5812 5809 5807 5805 5803 5800 5798 5795 5793 5791 5788 5786 5783 5780 5777 5774 5771 5769 5767 5765 5764 5763 5762 5761 5761 5761 5761 5760 5759 5759
5827 5826 5825 5824 5823 5823 5821 5820 5819 5817 5815 5812 5809 5805 5803 5801 5799 5797 5794 5792 5789 5787 5784 5782 5779 5776 5774 5771 5768 5765 5762 5760 5758 5757 5756 5755 5754 5754 5753 5753 5753 5752 5752
5823 5822 5821 5820 5819 5818 5817 5815 5814 5812 5810 5807 5803 5799 5797 5796 5793 5791 5788 5785 5783 5780 5778 5776 5773 5770 5767 5764 5761 5759 5756 5754 5752 5751 5750 5749 5748 5747 5746 5746 5745 5745 5744
5819 5818 5817 5816 5815 5813 5812 5811 5809 5807 5805 5802 5799 5796 5794 5791 5788 5786 5783 5780 5777 5775 5772 5770 5767 5764 5761 5758 5756 5753 5751 5749 5747 5745 5743 5742 5741 5740 5740 5739 5738 5738 5738
5815 5814 5812 5811 5810 5809 5808 5806 5804 5802 5800 5797 5795 5792 5789 5786 5783 5781 5778 5774 5772 5769 5767 5764 5762 5759 5756 5753 5750 5748 5746 5743 5741 5739 5737 5736 5735 5734 5733 5732 5732 5731 5731
5811 5810 5808 5807 5805 5804 5803 5801 5799 5797 5795 5792 5789 5786 5783 5781 5778 5775 5773 5770 5767 5765 5762 5759 5756 5754 5751 5748 5746 5744 5741 5739 5736 5734 5732 5730 5729 5727 5727 5726 5725 5724 5724
5806 5805 5804 5802 5801 5799 5798 5796 5795 5792 5790 5787 5785 5781 5779 5776 5773 5771 5768 5765 5762 5760 5757 5754 5751 5749 5746 5744 5741 5739 5736 5734 5731 5729 5727 5724 5723 5721 5720 5719 5718 5718 5717
5801 5799 5798 5797 5796 5795 5794 5792 5790 5788 5786 5783 5781 5777 5774 5772 5769 5766 5763 5761 5758 5755 5752 5749 5747 5745 5742 5739 5737 5734 5731 5729 5726 5724 5721 5719 5717 5716 5714 5713 5712 5711 5710
5796 5795 5793 5792 5791 5790 5789 5788 5786 5784 5781 5779 5777 5773 5770 5767 5764 5761 5759 5756 5753 5750 5748 5745 5743 5740 5738 5735 5732 5729 5727 5724 5722 5719 5717 5714 5712 5710 5708 5707 5706 5704 5703
5792 5790 5788 5787 5786 5785 5785 5784 5782 5780 5777 5775 5773 5770 5767 5764 5761 5758 5755 5753 5750 5747 5744 5742 5739 5736 5734 5731 5728 5725 5722 5719 5717 5714 5711 5709 5707 5705 5703 5701 5699 5698 5697
5787 5785 5784 5783 5782 5781 5780 5779 5778 5776 5774 5771 5769 5766 5763 5760 5758 5755 5752 5750 5747 5744 5741 5739 5736 5733 5730 5727 5724 5721 5718 5714 5711 5709 5706 5704 5702 5699 5697 5696 5694 5692 5691
5782 5781 5780 5779 5778 5777 5776 5775 5774 5772 5770 5768 5765 5762 5760 5758 5755 5753 5750 5747 5744 5742 5739 5736 5733 5730 5727 5724 5720 5717 5714 5711 5707 5705 5702 5700 5697 5695 5693 5690 5688 5687 5686
5778 5777 5776 5775 5775 5773 5772 5771 5770 5769 5767 5765 5762 5760 5757 5755 5753 5750 5748 5745 5742 5739 5736 5733 5730 5727 5724 5720 5717 5714 5710 5707 5704 5701 5699 5696 5693 5691 5688 5686 5684 5682 5681
5774 5772 5772 5772 5771 5769 5768 5768 5767 5765 5764 5762 5759 5757 5755 5753 5751 5748 5746 5743 5740 5737 5734 5731 5728 5724 5721 5717 5714 5711 5707 5704 5701 5698 5696 5693 5690 5687 5685 5682 5680 5678 5676
5771 5769 5768 5768 5767 5766 5765 5764 5763 5762 5761 5759 5757 5755 5753 5751 5749 5746 5744 5741 5738 5735 5732 5729 5725 5722 5718 5715 5711 5708 5704 5701 5699 5696 5693 5690 5687 5685 5682 5679 5677 5675 5673
5768 5766 5765 5765 5764 5763 5762 5762 5761 5759 5758 5757 5755 5753 5751 5749 5747 5744 5742 5739 5736 5733 5730 5727 5723 5720 5716 5713 5709 5706 5702 5699 5696 5693 5690 5688 5685 5682 5679 5677 5674 5672 5671
5765 5764 5763 5762 5762 5761 5760 5759 5758 5757 5756 5754 5753 5751 5750 5747 5745 5743 5740 5737 5734 5731 5728 5725 5721 5718 5714 5711 5707 5704 5701 5698 5694 5691 5688 5685 5682 5679 5677 5675 5672 5670 5669
5762 5762 5761 5760 5760 5759 5759 5758 5757 5755 5754 5752 5751 5749 5748 5745 5743 5741 5738 5736 5733 5730 5727 5724 5720 5716 5713 5709 5706 5702 5699 5696 5693 5690 5687 5683 5681 5678 5676 5673 5671 5669 5667
5760 5760 5759 5759 5758 5758 5757 5756 5755 5754 5752 5751 5749 5748 5746 5744 5742 5739 5737 5734 5731 5728 5725 5722 5719 5715 5711 5708 5704 5701 5698 5694 5691 5688 5685 5682 5679 5677 5674 5672 5670 5668 5666
5758 5758 5758 5758 5757 5757 5756 5755 5754 5753 5752 5750 5748 5746 5744 5743 5741 5738 5736 5733 5730 5727 5724 5720 5717 5714 5710 5707 5703 5700 5696 5693 5690 5687 5684 5681 5678 5676 5673 5671 5669 5666 5664
5757 5757 5757 5757 5756 5755 5755 5754 5753 5752 5751 5749 5748 5746 5744 5742 5740 5737 5734 5732 5729 5725 5722 5719 5716 5713 5709 5706 5702 5699 5695 5692 5689 5686 5683 5680 5677 5675 5672 5670 5668 5665 5663
5755 5755 5755 5755 5755 5754 5753 5752 5752 5751 5750 5749 5747 5745 5744 5741 5739 5736 5734 5731 5728 5725 5721 5718 5715 5711 5708 5704 5701 5697 5694 5691 5688 5685 5682 5679 5676 5673 5671 5668 5666 5664 5661